Location: Newark
(43.0000°N, 1.6781°W)
Time: 00:22:01
(UTC+00:00)

N. Korean satellite - Pass Details

Date: 07 December 2021
Orbit: 447 x 491 km, 97.3° (Epoch: 21 January)

Event Time Altitude Azimuth Distance (km) Brightness Sun altitude
Rises 06:32:34 0° 350° (N) 2,461 9.8 -9.3°
Reaches altitude 10° 06:35:35 10° 320° (NW) 1,580 8.6 -8.8°
Maximum altitude 06:37:01 12° 295° (WNW) 1,440 8.3 -8.5°
Drops below altitude 10° 06:38:28 10° 269° (W) 1,575 8.6 -8.3°
Sets 06:41:28 0° 238° (WSW) 2,443 9.8 -7.8°
